Regional Weather Roundup
Issued by NWS Northern Indiana

Home | Current Version | Previous Version | Graphics & Text | Print | Product List | Glossary On
Versions: 1 2 3 4 5 6 7 8 9 10 11 12 13 14 15 16 17 18 19 20 21 22 23 24 25 26 27 28 29 30 31 32 33 34 35 36 37 38 39 40 41 42 43 44 45 46 47 48 49 50
000
ASUS43 KIWX 161800
RWRIWX

KIWX WEATHER ROUNDUP
NATIONAL WEATHER SERVICE NORTHERN INDIANA
100 PM EST MON JAN 16 2017

NOTE: "FAIR" INDICATES FEW OR NO CLOUDS BELOW 12,000 FEET WITH NO
SIGNIFICANT WEATHER AND/OR OBSTRUCTIONS TO VISIBILITY.

* THESE STATIONS ARE NOT UNDER NWS QUALITY CONTROL. THEY ALSO MAY NOT
  REPORT WEATHER SUCH AS PRECIPITATION OR FOG.

INZ001>027-161900-
NORTHERN INDIANA

CITY           SKY/WX    TMP DP  RH WIND       PRES   REMARKS
GARY*          LGT RAIN  36  36 100 SE6       30.20F VSB 1
SOUTH BEND     CLOUDY    34  33  96 E8        30.21F FOG     WCI  27
6HR MIN TEMP:  31; 6HR MAX TEMP:  34; 6HR PCP:  0.02;

ELKHART*       FOG       34  32  93 E8        30.22F VSB 1   WCI  27
GOSHEN         FOG       35  32  88 E7        30.22F VSB 1   WCI  29
6HR MIN TEMP:  32; 6HR MAX TEMP:  36; 6HR PCP:  0.03;

FORT WAYNE     FOG       35  33  92 E6        30.24F VSB 3/4 WCI  30
6HR MIN TEMP:  33; 6HR MAX TEMP:  35; 6HR PCP:  0.01;


$$
INZ028>050-161900-
CENTRAL INDIANA

CITY           SKY/WX    TMP DP  RH WIND       PRES   REMARKS
LAFAYETTE      FOG       39  39 100 E8        30.17F VSB 3/4
6HR MIN TEMP:  34; 6HR MAX TEMP:  39;

KOKOMO*        FOG       37  36  96 E7        30.20F VSB 1
6HR MIN TEMP:  33; 6HR MAX TEMP:  37; 6HR PCP: TRACE;

MUNCIE*        CLOUDY    45  41  86 SE6       30.19F
6HR MIN TEMP:  35; 6HR MAX TEMP:  45; 6HR PCP: TRACE;

INDIANAPOLIS   CLOUDY    44  42  93 SE9       30.18F FOG
6HR MIN TEMP:  36; 6HR MAX TEMP:  44;


$$
MIZ043>046-050>051-056>058-064>065-071>073-077>080-161900-
SOUTHWEST LOWER MICHIGAN

CITY           SKY/WX    TMP DP  RH WIND       PRES   REMARKS
BATTLE CREEK   LGT RAIN  34  30  85 SE8       30.22F WCI  27
6HR MIN TEMP:  28; 6HR MAX TEMP:  34; 6HR PCP:  0.06;

BENTON HARBOR  LGT RAIN  36  34  92 E7        30.21F FOG
6HR MIN TEMP:  32; 6HR MAX TEMP:  36; 6HR PCP:  0.09;

COLDWATER*     LGT RAIN  36  33  90 SE7       30.23F
6HR MIN TEMP:  30; 6HR MAX TEMP:  36;

HILLSDALE*     MIX PCPN  32  28  86 SE6       30.23F WCI  26
HOLLAND        LGT RAIN  33  29  85 E6        30.23F WCI  28
6HR MIN TEMP:  28; 6HR MAX TEMP:  34; 6HR PCP:  0.08;

GRAND RAPIDS   FRZ RAIN  32  28  85 SE3       30.24F
6HR MIN TEMP:  23; 6HR MAX TEMP:  32; 6HR PCP:  0.08;

KALAMAZOO      FRZ DRZL  35  30  82 SE6       30.22F WCI  30
6HR MIN TEMP:  29; 6HR MAX TEMP:  35; 6HR PCP:  0.04;

STURGIS*       MIX PCPN  33  32  97 E7        30.22F WCI  27
6HR MIN TEMP:  30; 6HR MAX TEMP:  33;

THREE RIVERS*  CLOUDY    34  32  92 SE9       30.23F FOG     WCI  26
6HR MIN TEMP:  29; 6HR MAX TEMP:  34;


$$
OHZ001>008-015>018-024>025-161900-
NORTHWEST OHIO

CITY           SKY/WX    TMP DP  RH WIND       PRES   REMARKS
DEFIANCE       CLOUDY    35  31  85 E7        30.26F FOG     WCI  29
6HR MIN TEMP:  31; 6HR MAX TEMP:  35; 6HR PCP: TRACE;

FINDLAY        LGT RAIN  36  33  89 E6        30.25F FOG
6HR MIN TEMP:  32; 6HR MAX TEMP:  37; 6HR PCP:  0.02;

TOLEDO EXPRESS CLOUDY    34  30  85 E3        30.27F FOG
6HR MIN TEMP:  27; 6HR MAX TEMP:  34; 6HR PCP: TRACE;

TOLEDO METCALF CLOUDY    35  29  78 E6        30.29F HAZE    WCI  30
6HR MIN TEMP:  29; 6HR MAX TEMP:  36; 6HR PCP: TRACE;

LIMA           CLOUDY    39  38  96 SE6       30.23F FOG
6HR MIN TEMP:  32; 6HR MAX TEMP:  39; 6HR PCP:  0.02;


$$
AND FOR LAKE MICHIGAN COASTAL AND OPEN LAKE BUOY OBSERVATIONS

STATION/POSITION TEMP    WIND        PRES    VSBY  WAVE
                 AIR SEA DIR/SP/G                  HT/PER
                 (F)     (DEG/KT/KT) (MB)    (MI)  (FT/S)
CALUMET HARBOR    32     100/  3/  6 1021.9F
MICHIGAN CITY     35     100/  4/  5   N/A
BURNS HARBOR      36     140/  6/ 10 1022.7F
SAINT JOSEPH      35      CALM  /  3 1024.4

$$
&&




USA.gov is the U.S. government's official web portal to all federal, state and local government web resources and services.